Krabi, Thailand

3:37 AM +07 on April 24, 2017 (GMT +0700)
Ao Nang Weather Station | | Change Station

Elev 177 ft 8.05 °N, 98.84 °E | Updated 1 minute ago

Clear
Clear
77.4 °F
Feels Like 79 °F
N
0.0
Wind Variable Wind from North
Gusts 0.0 mph

Today
High -- | Low -- °F
--% Chance of Precip.
Yesterday
High -- | Low -- °F
Precip. -- in
Pressure 29.83 in
Visibility -9999.0 miles
Clouds
Heat Index 79 °F
Dew Point 76 °F
Humidity 94%
Rainfall 0.00 in
Snow Depth Not available.
6:11 AM 6:33 PM
Waning Crescent, 10% visible
METAR VTSG 232000Z AUTO VRB01KT 3200 BR ////// 24/23 Q1010 A2982
Pressure 29.83 in
Visibility -9999.0 miles
Clouds
Heat Index 79 °F
Dew Point 76 °F
Humidity 94%
Rainfall 0.00 in
Snow Depth Not available.
6:11 AM 6:33 PM
Waning Crescent, 10% visible
METAR VTSG 232000Z AUTO VRB01KT 3200 BR ////// 24/23 Q1010 A2982

Get Severe Weather Alerts

Thanks for signing up!

Be on the lookout for a verification email in your inbox.

You'll start receiving the daily forecast at 8 AM.

×

10-Day Weather Forecast

No radar image for this location.
×

Almanac

Astronomy

Apr. 24, 2017 Rise Set
Actual Time
Civil Twilight
Nautical Twilight
Astronomical Twilight
Moon
Length of Visible Light
Length of Day
Tomorrow will be .
, % of the Moon is Illuminated

Today's Extremes

Country Highs Country Lows

Community

WunderPhotos

WunderBlog® & News

Nearby

Air Quality

  Air Quality AQ Index Pollutant
Not available.

Snow Depth

Station Depth Elevation

Earthquake Activity

City Distance Mag. Time & Date
Minimum magnitude displayed is 2.5.

Coastal Water Temperatures

Place Temperature

Stations

Nearby Weather Stations

Station Location Temp. Windchill Dew Point Humidity Wind Precip. Elev Updated Type